EHI
6 6 6 6 6 4 5 6 7 6 7 7 5 3 1 0 1 2 5 6 5 2 1 2 4 4 3 2 2 3 3 3 3 3 3 3 2 2 2 2 1 0 0
7 6 5 5 4 3 3 5 6 8 10 9 7 5 3 1 2 3 5 7 6 3 2 3 5 5 4 3 3 4 3 3 3 3 3 3 1 1 1 1 0 0 0
7 5 4 4 4 4 5 4 5 7 8 7 7 7 6 4 4 4 4 5 5 4 4 4 4 5 5 5 6 5 4 2 2 2 2 2 1 0 0 0 0 0 0
4 3 3 3 4 6 8 6 4 4 3 3 5 6 7 6 5 4 3 4 4 4 5 4 4 5 7 8 9 6 3 1 1 1 1 1 0 0 0 0 0 0 0
2 1 1 2 4 6 8 6 4 2 1 1 2 4 5 5 4 3 3 3 4 4 5 5 4 4 7 10 9 5 2 1 2 2 1 1 1 1 0 0 0 0 0
4 3 2 2 5 6 6 4 2 1 1 1 1 1 1 2 2 3 4 4 3 4 4 5 4 4 6 8 7 4 3 3 3 3 2 2 2 1 0 0 0 0 0
7 6 4 4 6 7 6 3 1 1 1 0 0 0 0 0 2 3 4 4 3 4 4 4 4 5 6 6 6 5 5 5 4 3 2 1 1 1 0 0 0 0 0
8 7 6 6 6 6 6 4 2 2 1 0 1 1 1 1 1 2 2 2 2 3 3 3 4 5 6 6 6 6 6 5 4 3 3 2 1 0 0 0 0 0 0
9 7 7 7 7 7 6 4 3 2 1 0 1 2 2 2 1 1 1 0 1 1 1 2 3 4 5 5 5 4 4 4 3 3 4 3 1 0 0 0 0 0 0
8 7 7 7 8 8 6 5 3 1 0 0 1 2 2 2 1 1 1 1 0 0 1 2 4 4 5 5 4 3 3 2 1 1 3 3 1 0 0 0 0 0 0
6 6 6 6 7 8 7 6 4 2 0 0 0 1 1 1 1 2 2 2 1 0 0 2 4 5 4 4 3 3 2 1 0 0 1 1 0 0 0 0 0 0 0
4 4 4 4 5 6 6 6 5 3 1 1 0 0 0 0 1 2 2 2 1 0 0 1 3 3 3 3 3 2 1 0 0 0 0 0 0 0 0 0 0 0 0
2 2 2 2 3 4 4 4 4 3 3 2 1 0 1 1 1 2 2 1 1 0 0 0 1 2 2 3 3 1 0 0 0 0 0 0 0 0 0 0 0 0 0
1 1 1 1 1 1 1 2 3 3 3 3 1 1 2 2 2 2 2 1 0 0 0 0 0 1 2 3 2 1 0 0 0 0 0 0 0 0 0 0 0 0 0
0 0 0 0 0 0 0 1 2 3 3 3 3 3 3 3 2 1 1 1 1 1 1 1 1 1 1 2 1 0 0 0 0 0 0 0 0 0 0 0 0 0 0
0 0 0 0 0 0 0 0 1 2 2 3 3 3 3 3 2 1 0 0 1 1 2 1 1 0 0 0 0 0 0 0 0 0 0 0 0 0 0 0 0 0 0
0 0 0 0 0 0 0 0 0 1 1 1 3 3 3 3 2 1 0 0 0 1 1 1 0 0 0 0 0 0 0 0 0 0 0 0 0 0 0 0 0 0 0
0 0 0 0 0 0 0 0 0 0 0 1 2 3 3 3 2 1 0 0 0 0 0 0 0 0 0 0 0 0 0 0 0 0 0 0 0 0 0 0 0 0 0
0 0 0 0 0 0 0 0 0 0 0 0 1 2 3 2 1 0 0 0 0 0 0 0 0 0 0 0 0 0 0 0 0 0 0 0 0 0 0 0 0 0 0
0 0 0 0 0 0 0 0 0 0 0 0 0 1 2 1 0 0 0 0 0 0 0 0 0 0 0 0 0 0 0 0 0 0 0 0 0 0 0 0 0 0 0
0 0 0 0 0 0 0 0 0 0 0 0 0 0 0 0 0 0 0 0 0 0 0 0 0 0 0 0 0 0 0 0 0 0 0 0 0 0 0 0 0 0 0
0 0 0 0 0 0 0 0 0 0 0 0 0 0 0 0 0 0 0 0 0 0 0 0 0 0 0 0 0 0 0 0 0 0 0 0 0 0 0 0 0 0 0
0 0 0 0 0 0 0 0 0 0 0 0 0 0 0 0 0 0 0 0 0 0 0 0 0 0 0 0 0 0 0 0 0 0 0 0 0 0 0 0 0 0 0
0 0 0 0 0 0 0 0 0 0 0 0 0 0 0 0 0 0 0 0 0 0 0 0 0 0 0 0 0 0 0 0 0 0 0 0 0 0 0 0 0 0 0
0 0 0 0 0 0 0 0 0 0 0 0 0 0 0 0 0 0 0 0 0 0 0 0 0 0 0 0 0 0 0 0 0 0 0 0 0 0 0 0 0 0 0
0 0 0 0 0 0 0 0 0 0 0 0 0 0 0 0 0 0 0 0 0 0 0 0 0 0 0 0 0 0 0 0 0 0 0 0 0 0 0 0 0 0 0
Wind_Speed
1 1 1 1 2 2 2 3 3 4 5 5 5 6 6 6 6 6 3 6 6 7 9 11 12 12 14 14 14 13 13 13 12 12 12 11 11 11 10 10 10 9 9
1 1 1 1 2 3 3 3 4 4 4 4 5 5 5 6 5 5 6 4 6 6 7 9 10 12 13 13 14 14 14 13 13 12 12 12 12 12 12 11 10 10 10
2 2 2 1 2 2 3 3 3 3 4 4 5 5 5 5 5 5 5 5 4 7 6 7 7 8 11 12 14 14 14 14 13 13 13 13 13 13 12 12 12 11 10
2 2 2 1 2 3 2 2 3 3 3 3 3 4 3 3 5 5 5 5 4 4 5 5 6 7 8 11 12 14 14 14 13 14 14 13 13 13 13 12 12 12 11
3 2 2 2 3 2 3 3 2 3 3 3 4 3 4 4 3 4 4 5 4 4 4 3 5 6 6 8 10 12 13 13 13 13 14 14 14 14 13 13 12 12 12
3 3 1 3 3 2 2 2 3 2 3 3 4 4 4 4 3 3 4 4 3 3 3 3 3 3 3 4 6 9 12 12 13 13 14 14 13 13 13 13 12 12 13
4 3 3 2 3 2 3 3 3 3 3 3 4 4 4 4 3 3 2 2 2 2 2 2 2 2 1 3 4 5 8 10 12 13 13 13 12 12 13 13 13 13 13
4 3 4 3 3 2 2 3 3 3 3 2 4 4 4 4 3 1 1 1 1 1 1 1 2 2 2 1 0 1 3 5 8 10 11 11 11 12 12 13 13 13 13
4 4 4 4 4 3 3 3 4 4 3 3 3 4 4 2 1 1 1 0 1 1 1 1 2 2 2 2 1 1 1 2 4 7 8 9 10 12 12 12 13 12 13
5 5 5 4 4 3 3 3 3 4 4 4 3 3 5 4 3 1 1 1 1 2 2 2 2 2 2 2 2 3 1 1 2 3 4 5 8 10 10 10 10 10 10
5 5 5 5 4 3 4 4 3 4 4 4 4 3 4 4 5 4 3 1 0 1 2 2 2 2 2 2 2 3 3 3 3 4 4 4 6 8 9 10 10 10 10
4 6 5 5 4 4 4 4 4 3 3 4 4 3 3 3 3 3 3 2 1 1 2 2 2 2 2 2 4 6 6 6 6 7 7 7 8 8 9 10 11 10 10
4 6 6 5 5 5 5 4 3 4 4 4 4 3 3 3 3 3 3 2 1 1 1 1 2 2 2 2 3 6 8 8 9 9 9 9 9 10 9 9 9 9 9
5 6 5 5 6 6 5 4 3 3 3 3 4 4 3 3 3 3 3 2 2 1 1 1 2 3 3 3 4 4 5 9 9 9 9 9 10 10 9 9 9 9 9
4 6 6 6 6 6 6 5 3 4 3 3 3 3 3 2 2 3 3 3 3 2 1 1 1 3 3 3 4 3 4 8 9 9 9 9 9 10 10 10 9 9 9
6 6 6 6 6 5 5 5 4 4 4 3 3 3 3 2 1 2 2 2 2 2 1 2 2 2 3 3 5 4 6 9 10 9 9 9 8 8 9 8 8 8 8
5 5 6 6 5 6 6 5 5 5 5 4 4 3 3 3 2 1 1 1 1 2 3 3 2 3 3 4 4 4 4 4 6 9 9 8 7 6 6 6 7 6 6
5 5 5 6 6 7 6 6 6 6 5 5 5 4 4 3 2 2 1 2 2 3 4 5 2 3 4 4 5 4 4 5 5 8 7 6 5 5 5 5 5 5 5
6 6 6 7 7 7 7 6 6 6 6 6 6 5 4 4 4 3 3 3 3 4 4 5 4 3 3 3 4 5 5 4 4 6 6 5 4 4 3 4 4 4 5
6 6 6 7 7 7 8 7 6 6 6 6 7 6 6 5 4 4 4 4 4 5 5 5 5 4 4 4 3 3 4 3 3 3 3 4 5 5 5 4 5 5 5
5 5 6 6 7 7 8 8 6 6 6 6 7 8 8 8 9 6 4 4 3 3 4 5 5 4 4 3 3 3 4 3 3 1 2 2 4 4 5 7 7 6 6
6 6 6 7 8 8 9 11 8 6 7 7 7 6 6 7 8 8 7 7 5 4 4 4 4 5 5 4 3 2 3 2 2 1 1 1 2 2 2 3 6 7 6
5 6 6 7 7 8 9 10 9 6 7 7 7 6 6 6 6 7 7 7 8 6 4 3 5 4 5 4 2 2 2 1 1 1 1 1 1 1 1 3 8 6 6
5 5 6 6 7 8 9 9 9 5 7 7 7 7 7 7 7 6 6 7 8 7 5 4 5 4 4 3 1 1 1 2 2 1 1 1 0 0 1 2 8 8 8
4 4 5 5 6 7 8 9 10 4 6 8 8 8 7 8 9 7 5 8 8 7 8 8 7 5 4 2 2 1 1 1 1 1 0 1 1 1 2 3 6 11 10
3 3 4 5 6 6 7 9 11 4 5 5 6 7 10 8 9 9 5 6 7 6 6 6 5 4 3 3 2 3 2 1 0 1 1 2 2 2 2 2 3 5 7
Wind_Direction
302 327 317 315 296 295 269 265 267 268 265 257 253 250 257 257 258 257 221 168 201 228 231 226 225 227 222 217 219 218 217 216 212 207 204 203 201 198 198 195 192 188 185
358 320 288 301 301 292 298 292 281 273 266 262 263 264 264 264 260 262 266 206 196 219 230 232 233 233 227 219 217 221 220 216 215 213 208 205 203 201 200 198 195 190 187
346 308 307 299 324 304 288 277 278 272 264 263 264 267 263 265 263 257 264 268 237 209 217 232 239 237 231 225 220 220 221 218 216 215 214 210 207 204 202 201 197 193 190
351 312 312 328 329 300 295 288 283 278 275 278 278 277 273 261 263 263 261 258 261 260 216 211 233 239 233 227 224 222 222 219 220 217 216 215 211 207 205 205 200 195 192
357 328 342 355 322 319 312 304 317 296 286 281 274 265 264 261 268 265 266 269 267 265 268 202 219 234 235 233 233 231 227 219 220 221 218 216 215 210 206 204 201 194 189
3 340 358 0 332 334 330 331 316 299 294 288 282 283 271 264 261 265 268 266 273 273 276 275 238 224 220 241 244 242 234 224 219 219 218 216 214 208 202 199 198 193 190
11 356 350 2 340 353 344 331 316 290 282 289 278 270 253 238 235 248 260 278 276 280 294 292 289 289 227 220 241 244 238 229 224 221 220 215 211 207 201 199 195 192 189
11 11 0 347 356 338 352 348 325 308 301 288 291 286 263 224 195 210 220 223 296 303 316 327 327 324 307 288 93 221 242 232 226 223 219 212 210 202 200 199 194 193 190
26 12 4 355 345 337 359 340 319 303 300 289 282 287 287 285 321 160 155 93 23 0 353 351 350 335 330 334 316 124 195 224 225 223 216 209 208 200 197 195 191 190 186
23 12 5 3 350 350 347 333 339 311 299 295 285 269 279 296 283 259 179 106 57 22 8 358 357 0 354 359 28 38 79 169 202 208 202 202 193 186 185 176 170 170 171
27 16 7 360 354 352 352 340 335 327 313 303 297 291 281 268 258 261 258 222 98 31 32 18 7 8 5 12 15 51 81 110 122 134 144 143 147 156 156 154 152 151 153
29 23 12 4 355 355 352 345 337 342 333 318 304 294 284 280 274 266 262 256 259 4 24 23 12 15 18 20 46 61 77 96 106 112 117 125 127 132 140 149 156 157 155
24 21 12 7 3 358 353 347 344 349 349 332 315 305 291 282 284 274 252 243 248 274 343 36 21 25 35 35 52 64 77 87 97 101 103 110 115 119 123 131 140 146 149
22 11 9 13 8 360 355 350 344 354 355 334 326 313 296 295 285 261 247 223 215 211 204 69 48 40 41 47 49 59 83 86 92 98 101 106 110 113 117 121 130 135 136
24 18 10 15 14 4 356 347 0 358 349 329 324 319 310 307 294 276 253 245 232 202 172 89 62 47 47 55 50 66 79 85 90 95 97 101 104 105 107 113 124 130 135
29 19 18 17 13 8 6 356 4 8 357 355 348 348 329 330 324 293 271 249 247 214 141 92 68 55 60 73 76 81 90 94 86 90 94 97 102 107 111 119 126 131 140
27 20 20 20 16 18 15 10 12 5 7 8 7 9 360 353 346 300 248 206 165 139 127 109 82 82 78 81 85 85 90 93 97 96 98 100 104 108 116 125 129 134 141
29 27 23 25 25 25 18 15 13 14 10 13 17 19 15 13 13 22 55 87 97 105 123 124 107 96 87 92 93 89 88 89 95 99 100 99 101 107 114 125 136 144 150
36 33 31 31 28 25 21 17 16 17 20 22 22 21 22 28 38 52 62 83 95 103 111 120 110 94 94 99 106 102 98 94 100 116 121 122 120 123 136 149 156 162 165
42 41 36 33 31 29 23 17 18 23 26 30 32 30 33 38 43 60 74 86 102 114 118 119 118 117 112 112 115 114 111 104 96 109 112 132 144 160 168 173 180 183 181
45 42 40 39 35 34 22 9 14 32 32 38 44 44 47 50 41 40 56 77 99 114 121 120 119 115 109 115 105 102 105 111 107 120 150 167 170 181 175 181 184 183 185
44 41 43 43 39 36 12 3 359 31 34 41 46 50 63 67 67 67 66 63 57 82 95 107 110 112 111 103 100 117 129 141 127 140 206 163 171 172 182 174 144 162 187
47 43 43 43 45 36 12 6 3 24 42 41 43 45 52 58 61 81 94 99 79 73 74 89 100 99 108 108 110 115 96 72 80 119 224 149 167 159 197 138 149 176 198
46 44 41 40 42 39 17 5 353 38 51 50 50 52 57 54 43 37 78 83 81 74 69 77 86 89 93 92 94 112 140 158 163 147 277 269 147 200 210 164 167 192 208
52 49 46 40 43 45 22 2 346 42 61 60 56 52 48 59 30 8 72 87 86 86 86 81 76 77 70 52 341 277 189 176 118 116 184 295 293 274 248 219 182 194 212
61 61 58 46 45 45 32 7 346 23 52 63 73 75 60 42 23 9 49 73 81 81 87 103 114 140 151 150 224 280 308 326 62 101 99 294 295 286 271 245 229 206 219